Wind_Speed
20 20 17 15 13 12 9 7 5 4 5 6 7 8 8 8 8 7 7 7 7 8 9 10 11 12 13 14 14 15 14 14 14 15 15 16 16 17 18 19 20 21 21 22 22 23 24 24 25 25 25 26 26 26 25 25 24 24 23 22 21 21 21 21 20 20 20 20 19 19 18 17 17 17 16 16 16 15 16 16 17 19 20 20 21
22 22 19 16 14 13 10 7 6 5 5 6 7 8 9 9 9 9 8 8 7 8 8 9 10 11 12 13 14 14 14 14 14 13 14 14 15 15 16 17 18 19 19 20 20 21 22 23 24 25 25 25 26 27 27 27 27 27 27 26 26 26 26 25 25 24 24 24 24 24 24 24 24 24 24 24 23 23 24 24 25 26 26 26 27
23 24 22 19 15 14 11 8 7 6 6 6 7 8 9 10 11 11 10 10 9 9 9 8 9 10 12 13 13 14 14 14 14 13 13 13 13 14 14 15 16 17 17 18 18 19 20 21 22 23 24 25 26 26 26 27 27 27 28 29 29 30 30 29 29 29 28 28 28 28 28 28 28 29 29 29 29 30 30 31 31 30 30 31 31
23 24 24 21 18 17 15 11 8 8 8 8 9 9 10 11 11 12 12 12 11 10 10 10 10 10 11 12 13 13 13 14 14 13 13 13 12 13 13 13 14 15 15 16 16 17 17 18 20 21 23 24 25 26 26 26 27 27 27 28 29 30 31 31 31 31 31 30 30 30 30 30 30 31 31 32 32 33 33 33 33 33 33 33 33
24 24 24 23 20 19 18 15 13 10 10 10 10 11 12 12 13 13 13 13 13 12 12 12 12 11 11 12 13 13 13 13 13 13 13 12 12 12 11 11 12 12 13 14 14 15 15 16 17 19 20 21 23 24 25 26 26 26 26 27 28 28 29 30 30 30 30 30 30 29 29 30 30 30 31 31 32 33 33 34 34 35 35 36 35
25 25 24 24 23 21 19 17 17 15 15 14 13 13 14 14 15 15 14 15 15 15 14 14 13 13 12 12 13 13 13 13 12 12 12 12 11 10 10 10 10 10 10 11 12 13 13 14 14 16 17 18 20 21 22 23 24 25 25 25 26 26 26 27 27 27 27 27 27 27 27 27 27 28 29 29 30 32 33 34 34 34 35 36 36
27 27 27 28 27 24 20 18 19 20 19 18 15 13 14 16 17 17 17 16 16 16 16 16 16 15 13 12 13 13 13 13 12 11 10 10 10 9 9 9 8 8 8 8 9 10 10 11 12 13 14 15 16 17 18 20 21 21 22 22 23 23 23 23 23 23 23 23 23 23 23 23 23 24 25 26 27 29 30 32 32 32 33 34 35
29 29 29 30 31 28 24 21 22 21 20 18 15 12 14 16 19 21 21 19 18 17 17 18 18 16 15 14 13 13 14 14 13 13 11 10 10 9 8 8 7 7 7 6 6 7 7 8 9 10 11 11 12 13 14 15 16 17 18 18 19 19 19 19 20 19 19 19 19 19 19 19 19 20 21 23 24 25 27 28 29 29 30 30 31
32 32 33 34 34 32 27 25 24 22 21 19 16 14 15 18 20 24 26 24 21 19 19 20 19 17 16 15 14 13 13 13 14 13 12 11 10 9 9 8 7 6 6 5 5 4 4 5 5 6 8 8 9 10 11 12 12 13 14 14 15 15 15 15 15 15 15 15 15 15 15 16 16 17 18 19 20 21 23 24 25 26 26 27 27
34 35 36 36 36 34 30 27 26 23 22 21 18 16 18 20 22 24 27 28 26 24 23 23 22 20 18 17 16 15 14 13 14 14 14 13 11 10 10 9 9 8 7 6 5 4 3 3 3 3 4 5 6 7 7 8 8 9 9 10 11 11 11 11 11 11 11 11 11 11 12 12 13 14 16 17 17 18 19 20 21 22 23 23 23
37 38 40 40 38 36 33 30 29 26 24 23 22 21 21 23 24 24 26 29 30 29 28 26 24 23 22 20 19 18 17 16 15 15 15 15 14 13 12 11 11 10 9 8 7 6 5 4 4 3 3 2 3 4 5 5 5 5 6 6 6 7 7 7 7 6 6 6 7 7 7 8 10 10 11 13 14 14 15 16 17 18 18 19 18
40 39 42 43 41 40 38 35 33 32 30 28 28 29 28 27 27 25 24 26 29 31 32 31 28 26 25 24 22 20 19 19 18 17 16 16 17 16 15 14 14 13 12 11 10 9 8 8 7 6 6 4 3 3 3 3 3 3 3 3 3 3 3 3 3 3 3 2 2 2 3 4 6 7 8 9 10 11 11 12 12 13 14 14 14
41 38 39 41 41 43 42 39 37 37 35 33 34 36 35 32 30 29 28 27 30 32 33 34 34 31 29 27 26 23 21 20 20 20 19 18 18 18 18 18 17 16 15 14 13 12 11 11 10 10 9 8 7 6 5 5 5 4 4 3 3 3 3 2 1 0 0 1 2 2 2 1 3 5 6 7 7 8 9 9 9 9 9 9 9
47 45 45 46 45 45 44 42 41 41 41 41 41 41 42 40 38 36 34 33 33 34 34 35 36 36 35 32 31 28 25 22 22 22 21 21 20 19 19 20 19 19 18 17 16 15 14 13 13 13 13 12 11 10 9 8 8 8 7 6 6 6 6 6 5 5 5 4 5 5 5 5 5 5 6 7 7 8 8 8 8 7 7 6 6
57 54 53 53 51 49 48 46 44 42 42 46 50 51 50 48 46 42 40 39 37 36 37 37 37 37 37 35 33 32 29 26 24 23 21 21 21 20 19 19 19 19 19 18 18 17 17 16 15 15 15 15 14 14 14 12 11 11 11 10 9 9 9 10 10 10 10 11 10 9 9 9 9 9 9 8 9 9 9 9 8 7 6 6 5
65 63 62 62 60 59 58 56 52 46 40 40 48 55 56 52 49 46 44 43 41 39 38 38 37 37 36 34 32 33 33 31 28 25 23 21 21 22 21 20 19 19 19 19 19 19 20 19 18 18 17 17 16 17 17 16 15 14 13 13 12 12 12 14 15 14 14 15 15 14 12 10 11 12 12 13 12 12 12 12 11 11 9 9 8
71 72 73 73 72 70 68 66 65 60 49 38 38 46 52 52 50 49 48 46 43 41 41 41 40 38 37 34 32 33 35 34 33 31 29 27 25 25 25 24 22 22 22 21 21 22 22 22 21 20 19 18 18 19 19 19 18 16 16 16 15 13 13 16 18 17 16 15 15 15 13 11 9 10 12 14 15 16 16 16 16 16 15 14 14
79 80 80 80 79 77 74 73 72 69 62 53 46 45 48 50 51 50 50 48 45 43 43 44 43 42 41 38 36 35 36 35 34 34 34 33 30 29 29 28 25 23 22 22 22 23 23 24 23 22 21 19 20 21 21 21 20 19 18 18 16 13 12 15 18 17 16 15 15 14 13 11 9 8 9 11 13 15 17 18 19 19 19 19 19
86 86 85 85 85 83 81 80 78 73 70 69 66 62 60 59 56 54 53 50 46 44 45 47 47 45 44 43 41 41 39 36 34 35 36 35 33 33 33 32 30 27 23 22 23 24 25 25 24 23 22 21 21 22 23 24 23 22 20 20 18 13 11 15 19 18 17 16 15 15 15 13 11 9 9 10 11 12 14 16 18 20 21 21 21
88 88 89 88 88 88 87 85 83 79 76 75 74 73 69 65 62 60 57 52 49 48 48 49 50 49 47 46 45 46 45 41 37 36 36 35 35 35 36 36 35 34 30 27 26 26 26 26 26 25 23 23 23 23 24 25 26 25 24 23 19 14 13 17 20 20 19 18 16 16 16 16 14 12 11 11 10 10 11 13 15 17 18 18 20
88 88 89 90 90 91 90 88 87 85 82 79 77 75 72 68 64 62 59 54 51 51 51 52 53 52 50 49 48 48 49 46 42 39 38 36 36 37 38 39 39 38 36 35 33 30 28 26 26 27 26 25 25 25 25 26 27 28 28 26 22 18 16 18 20 22 22 20 17 17 18 18 18 16 14 13 12 11 11 11 11 12 13 13 15
90 89 89 90 91 91 90 89 88 87 86 83 80 78 75 71 67 64 61 58 54 53 52 52 53 53 53 52 51 51 51 50 47 44 42 40 38 38 38 39 40 40 40 40 40 38 34 30 28 27 27 27 27 27 27 28 28 30 30 29 26 22 19 19 21 22 23 22 20 19 20 21 21 20 18 16 15 15 14 13 11 11 12 12 12
93 92 92 92 92 92 91 90 88 87 87 85 83 81 77 73 69 66 64 62 60 58 55 53 53 54 54 55 54 54 55 54 53 51 49 46 43 41 39 39 39 40 42 43 43 42 41 39 35 31 29 30 30 30 30 30 31 32 32 31 30 27 23 21 21 21 22 23 23 22 22 24 24 23 21 19 19 19 18 16 15 14 15 15 14
98 96 95 95 94 94 93 92 90 89 89 88 86 84 81 77 73 70 68 67 66 65 63 61 59 57 56 56 56 56 57 57 56 55 53 51 48 45 44 43 42 42 44 46 46 45 44 43 41 38 35 34 33 32 33 33 33 33 33 33 32 30 27 24 23 22 23 25 25 24 25 27 27 26 24 22 22 22 21 20 18 18 17 16 16
103 102 101 100 99 97 96 95 94 93 93 92 91 89 88 85 81 76 72 71 71 70 70 69 68 65 61 59 59 58 57 57 57 56 55 54 52 50 48 48 47 45 46 48 49 48 46 45 44 42 41 39 37 35 34 34 34 34 34 34 34 33 31 28 26 25 25 27 26 25 26 27 28 28 27 25 24 24 24 22 21 21 20 18 18
104 104 104 103 102 101 100 99 98 97 96 95 95 94 93 91 88 83 78 75 74 74 74 74 74 72 68 66 64 62 61 60 59 58 58 57 57 56 54 52 51 48 47 49 51 52 50 48 46 45 44 44 42 40 37 36 35 36 36 36 35 35 34 32 30 29 29 29 29 27 26 27 29 29 27 26 25 26 25 23 22 23 22 20 21
105 105 105 105 105 104 104 103 102 101 100 99 99 98 97 96 93 89 84 80 78 78 78 78 78 77 75 73 71 69 67 66 64 63 63 62 62 61 60 58 55 53 51 51 52 53 53 51 50 49 48 47 46 44 42 40 37 36 37 37 37 36 36 34 33 33 33 32 32 30 28 28 29 30 28 26 26 28 26 24 24 25 24 23 25
107 107 107 106 106 106 106 105 105 105 104 104 104 102 100 98 96 94 90 86 83 82 82 83 83 82 82 80 78 76 75 74 73 71 69 67 67 66 65 63 59 57 55 54 53 54 55 55 53 52 51 50 49 47 46 44 42 40 38 38 37 37 37 36 36 36 36 36 35 34 32 30 30 32 31 28 29 30 28 27 27 28 27 25 27
110 109 108 108 107 107 107 107 107 106 106 106 106 104 103 101 99 97 95 92 89 87 86 86 87 87 87 87 86 85 84 84 84 81 76 72 71 71 70 67 64 61 59 56 55 55 56 57 56 55 53 52 51 50 49 48 47 45 44 42 40 38 38 38 38 39 39 39 38 38 36 33 32 33 33 31 31 32 31 30 30 30 29 29 30
113 112 111 110 109 109 108 108 108 108 107 106 106 105 104 103 102 100 98 96 94 92 91 90 90 90 90 91 91 91 91 91 90 87 81 76 74 75 74 72 69 67 65 63 61 58 56 56 57 56 55 53 53 53 52 51 51 50 49 47 45 43 40 39 39 40 40 40 41 42 41 37 34 34 34 33 33 33 33 33 33 33 32 32 33
115 115 115 114 112 111 110 110 110 110 109 108 107 106 106 106 104 103 102 100 98 97 95 94 93 93 93 92 92 93 93 93 91 88 84 80 77 76 76 75 73 71 70 69 68 65 61 57 56 57 56 55 55 56 55 54 54 54 54 53 51 49 46 43 41 40 40 41 43 44 44 41 38 37 37 37 36 36 35 36 36 36 36 36 37
116 117 117 116 116 115 113 112 111 111 111 111 110 109 108 107 106 105 104 103 102 100 98 97 96 95 95 95 94 94 94 93 92 90 87 84 81 79 78 77 75 73 72 71 71 70 67 61 58 57 57 57 57 58 58 57 58 58 58 58 57 55 53 49 45 42 41 42 44 45 46 45 44 42 41 40 39 38 38 38 37 38 38 39 40
118 118 118 118 118 117 117 115 115 114 114 113 113 112 111 110 109 108 107 106 105 104 102 100 99 98 97 97 97 96 96 94 93 91 89 87 86 84 83 81 78 76 74 73 72 72 71 67 63 61 61 61 61 60 59 59 60 61 61 61 61 60 58 55 52 49 46 45 45 45 47 48 48 48 46 44 42 41 40 40 39 39 40 41 42
120 119 119 118 118 118 118 118 118 117 117 116 115 115 114 113 112 110 109 108 108 106 105 103 102 100 99 98 98 98 98 97 95 94 92 90 89 88 88 87 85 82 79 78 76 75 75 73 70 67 65 64 63 61 60 61 63 64 65 65 65 64 62 60 57 56 54 51 49 48 49 50 51 51 50 48 46 44 43 43 42 42 43 44 45
124 123 121 120 119 119 119 119 119 119 118 118 118 117 116 115 114 112 111 110 109 108 107 105 104 102 100 99 99 99 99 99 97 96 95 94 93 92 92 91 91 89 87 85 83 82 81 79 77 73 70 68 67 66 66 66 67 68 69 69 69 68 67 64 62 61 60 58 55 53 52 52 54 54 53 51 49 47 46 46 46 46 47 47 47
127 126 125 124 123 121 121 120 120 119 119 119 119 119 118 118 116 115 113 112 111 110 109 107 106 103 101 100 99 99 99 99 98 97 97 96 95 95 94 94 94 94 93 91 90 89 88 86 84 82 79 77 77 77 76 75 74 74 74 74 73 72 70 69 67 66 64 63 62 59 57 56 57 57 56 54 52 50 49 49 49 50 50 50 49
131 130 129 127 126 125 124 123 122 121 121 120 120 119 119 119 118 117 116 115 114 113 112 110 108 106 104 102 101 100 99 99 98 98 98 97 96 96 95 95 96 97 97 96 95 94 93 92 91 90 89 88 87 86 84 83 81 80 78 77 77 75 74 73 71 70 68 67 66 65 62 61 61 61 60 58 56 54 53 52 52 53 53 53 53
133 132 131 131 130 128 127 126 125 124 123 122 122 121 120 120 119 119 118 117 116 115 114 113 111 110 107 105 104 103 102 101 100 100 99 98 97 96 95 95 96 98 99 100 99 98 97 96 95 95 95 94 93 92 90 89 87 85 82 80 79 78 77 76 75 73 72 71 70 70 68 66 65 65 64 63 62 60 57 56 55 55 56 56 57
135 134 134 133 132 131 131 130 129 128 127 126 125 124 123 122 122 121 120 119 118 117 115 114 113 112 111 109 107 105 104 104 103 102 102 101 99 97 96 96 96 97 99 100 100 101 100 100 99 99 98 98 97 96 95 93 90 86 84 83 82 80 79 79 78 77 75 74 74 74 73 71 70 69 68 68 67 65 62 60 60 59 58 58 59
137 136 136 135 134 133 133 132 132 131 130 129 128 127 126 125 125 124 122 121 121 119 118 116 115 114 113 111 110 109 107 107 106 106 105 104 102 100 98 97 97 98 98 99 99 100 100 101 101 101 101 100 100 99 97 94 90 86 84 84 84 83 82 81 80 79 78 77 76 76 76 75 74 73 72 71 71 69 67 66 65 63 62 60 60
137 137 137 136 136 135 135 134 134 133 133 132 131 130 129 128 127 127 126 125 124 122 121 120 118 116 114 113 111 111 110 109 109 108 108 107 105 103 101 100 99 99 100 100 100 99 99 100 100 101 101 100 99 98 96 93 90 87 85 84 85 85 85 84 82 81 81 80 79 79 78 78 77 76 75 75 75 74 73 71 70 68 66 64 62
137 137 138 138 137 137 136 136 135 135 134 134 133 132 132 131 130 129 128 127 126 125 124 123 121 120 118 116 114 112 112 111 111 111 110 109 108 107 105 103 102 102 102 102 101 101 100 100 100 100 100 99 98 97 96 94 91 88 86 85 85 86 86 86 85 84 83 83 82 82 81 81 80 79 78 78 78 77 77 76 75 73 71 68 66
135 136 137 138 138 138 138 137 136 136 135 134 134 133 133 132 132 131 130 130 129 128 127 126 125 123 122 120 118 116 115 114 114 113 112 111 110 109 107 105 104 104 104 104 103 103 103 103 102 101 100 99 99 97 96 95 93 90 88 86 85 86 86 87 87 86 85 85 85 85 84 84 83 82 81 81 80 79 79 79 78 77 76 73 71
131 133 134 136 137 137 137 137 137 136 135 135 134 133 133 132 132 132 132 132 131 130 130 129 128 127 125 124 122 120 119 118 117 116 115 114 113 111 109 107 106 106 106 105 105 105 105 105 105 104 102 101 100 99 98 97 95 93 91 89 87 86 86 87 87 87 86 86 86 87 87 87 86 86 85 84 82 81 81 81 80 80 79 78 77
126 128 129 131 133 134 135 136 136 136 136 135 134 133 133 132 132 132 133 133 132 132 131 130 130 129 128 127 126 124 123 122 121 120 118 117 116 114 111 110 108 107 107 107 107 107 107 107 107 107 106 104 103 102 101 100 99 97 95 93 91 89 88 87 87 88 87 87 87 87 88 89 89 89 88 88 86 84 83 83 83 83 83 82 82
122 124 125 126 128 129 130 132 133 133 134 134 134 133 133 133 132 132 132 132 132 132 132 131 131 130 130 130 129 127 126 125 124 123 122 120 119 117 115 113 112 110 109 108 108 107 107 108 108 108 108 107 106 105 104 103 102 101 99 98 96 94 92 90 89 89 89 88 88 88 89 90 91 91 91 91 90 88 87 86 86 86 86 86 86
119 120 121 122 124 125 126 127 128 130 130 131 132 132 132 132 132 132 132 131 131 131 131 131 131 131 131 131 130 129 128 128 127 127 125 124 123 121 119 117 115 114 113 111 110 109 108 108 108 109 109 109 108 108 106 105 104 103 103 102 101 99 98 96 93 92 91 90 90 90 90 91 92 93 93 93 93 93 92 91 90 89 89 89 88
115 116 118 119 120 122 123 124 125 126 127 128 128 129 130 131 131 131 131 131 131 131 131 131 130 131 131 131 131 130 130 130 130 129 128 127 126 125 123 122 120 118 116 115 114 113 111 110 109 109 109 109 110 110 109 108 106 106 105 105 104 104 103 101 99 97 95 93 93 92 92 92 93 94 94 95 95 95 95 95 94 93 92 92 92
111 112 114 115 117 118 119 121 122 123 123 124 125 125 126 127 129 129 130 130 131 131 130 130 130 130 130 130 130 131 131 131 131 131 130 129 128 127 126 126 124 122 120 119 117 116 115 113 112 111 110 110 110 110 110 110 109 108 107 107 106 106 106 105 104 103 100 99 97 96 95 94 94 94 95 96 97 97 98 98 97 97 97 96 96
106 108 109 110 111 113 114 116 117 119 119 120 121 122 123 124 125 126 127 128 129 129 129 130 129 129 129 130 130 130 131 131 132 132 132 131 130 129 128 128 127 126 125 123 121 120 118 117 115 114 113 113 112 111 111 111 111 110 109 109 108 108 108 108 107 106 105 104 103 101 99 98 97 96 96 97 98 99 99 100 100 100 100 100 100
101 102 103 104 105 106 107 109 110 112 113 114 115 116 118 120 122 123 124 125 126 126 127 128 128 129 129 129 130 130 131 131 131 132 132 132 131 131 130 130 129 129 128 127 125 124 122 120 119 117 116 115 115 114 113 113 112 112 111 110 110 110 109 109 109 109 108 108 107 106 105 103 102 100 99 98 98 99 100 101 102 102 102 102 102
Wind_Direction
253 253 253 252 249 244 237 233 242 271 299 310 312 310 308 310 311 313 323 334 345 356 3 6 7 4 3 4 8 12 17 23 27 31 36 40 44 46 50 55 58 61 62 62 64 65 67 68 69 69 69 69 69 69 68 68 68 68 69 69 69 70 70 70 71 71 71 72 72 72 71 71 70 70 69 68 67 66 64 62 61 63 65 66 67
255 254 251 249 248 246 239 231 228 238 268 291 299 300 300 301 301 301 302 307 314 326 338 348 354 356 356 355 357 0 5 12 17 23 28 33 39 43 46 50 54 57 59 61 62 63 65 67 68 70 71 71 71 71 70 70 70 70 71 72 72 72 72 72 73 73 73 74 74 74 74 75 75 76 76 75 73 72 70 70 69 69 70 72 74
254 252 250 247 244 239 233 231 237 239 243 259 274 284 290 293 294 295 294 294 296 301 310 322 335 343 346 348 350 352 354 0 6 12 17 22 31 37 40 44 48 52 54 56 58 60 61 63 65 67 69 71 72 72 71 70 70 69 69 70 70 70 70 71 71 71 71 71 71 71 71 71 72 73 74 74 74 74 74 74 74 75 78 82 85
252 248 248 250 245 238 235 239 250 260 263 260 261 267 275 281 284 288 289 288 288 290 294 301 311 323 332 337 341 344 345 350 355 1 6 11 18 25 31 37 41 45 47 48 52 54 57 60 62 63 65 69 71 72 72 71 70 69 68 67 67 67 67 67 67 67 67 67 67 67 67 68 69 71 73 74 76 79 81 82 84 86 90 93 95
254 247 248 254 253 248 249 250 253 267 278 273 268 271 276 279 281 283 286 287 287 287 287 289 294 302 314 322 328 333 337 341 346 351 357 1 5 11 19 27 33 38 42 42 43 46 49 52 57 61 61 64 67 70 71 71 70 69 68 66 65 65 64 64 64 64 64 64 64 64 66 68 70 73 77 80 83 87 90 92 94 97 100 102 104
256 248 246 251 251 250 255 258 258 265 276 276 269 269 274 277 279 280 280 281 284 287 287 285 286 288 294 303 311 318 325 331 337 342 346 350 354 359 5 13 22 30 36 38 38 38 40 41 47 55 59 60 62 65 68 69 69 68 67 66 65 63 62 62 62 62 63 64 64 64 66 69 72 77 82 86 90 94 98 100 102 105 107 108 108
250 249 248 248 246 244 247 256 261 267 278 280 269 266 273 275 274 274 273 272 272 277 282 283 283 283 283 288 295 302 310 317 324 331 334 338 342 345 349 355 5 16 25 32 35 33 32 32 34 41 51 57 59 60 63 65 67 67 66 65 65 64 62 61 61 62 64 65 66 67 68 71 75 81 86 91 96 100 103 105 107 108 110 110 111
235 243 246 247 244 240 240 249 257 262 269 269 262 268 280 282 278 270 265 265 263 264 271 275 279 281 279 280 285 292 300 306 312 318 323 324 327 329 332 335 342 354 4 16 27 30 26 25 24 28 36 46 54 57 59 60 62 64 65 65 65 64 63 62 61 62 65 68 69 71 73 77 81 86 91 96 100 104 108 110 111 112 113 114 113
226 232 236 239 239 237 237 247 253 251 251 252 252 261 271 280 284 274 263 262 264 267 273 276 278 281 281 281 284 288 295 301 307 312 315 315 315 314 315 317 320 326 335 346 360 13 17 13 12 17 20 27 39 48 53 55 56 58 61 64 66 65 64 64 64 64 67 72 75 78 81 85 89 94 99 102 105 108 111 114 114 115 117 117 115
228 229 231 234 237 235 235 244 249 243 240 242 248 254 259 269 279 277 269 267 269 272 277 281 284 286 287 287 287 290 295 299 302 306 309 311 309 305 303 303 303 304 305 308 317 326 334 339 341 350 2 9 15 24 35 43 49 51 55 59 64 66 66 65 65 67 69 72 77 84 90 94 98 103 107 110 112 114 116 118 119 120 121 120 118
228 231 232 234 235 234 235 240 245 242 236 236 240 246 254 262 269 272 273 273 274 276 278 282 287 290 290 288 287 290 292 294 296 298 300 304 305 304 300 295 292 291 291 288 288 291 293 293 291 293 303 328 344 352 360 11 25 35 41 47 55 64 69 69 66 62 63 66 73 83 93 102 108 111 115 118 120 121 122 124 125 126 126 125 123
227 231 234 234 232 232 233 236 241 243 242 239 240 245 252 259 263 267 271 273 275 277 278 279 282 287 289 289 288 289 287 287 288 289 290 293 298 301 300 297 291 286 282 281 278 275 277 277 276 273 270 266 269 284 302 315 329 346 1 9 16 31 54 73 77 68 53 47 52 67 88 116 127 128 128 130 131 131 131 132 134 134 134 133 130
222 225 226 227 228 229 232 234 238 242 244 245 246 248 252 257 262 265 267 267 268 272 277 279 278 279 282 285 287 287 283 280 280 282 284 285 290 296 299 299 296 290 282 278 274 270 268 269 270 269 267 264 258 254 255 262 272 279 285 296 301 305 308 311 315 197 237 281 281 283 282 215 170 163 160 156 154 151 149 147 146 147 148 147 144
220 222 222 222 224 228 232 236 239 243 246 248 249 251 254 257 262 267 267 264 264 266 271 275 275 275 276 280 283 283 280 276 275 276 278 281 284 290 294 297 298 295 289 281 274 271 268 266 266 266 265 265 263 259 255 252 256 260 262 265 268 272 276 278 280 280 274 268 260 257 256 255 241 218 200 190 185 181 177 172 169 168 169 171 171
223 225 227 228 229 230 234 239 243 247 250 251 250 252 255 257 260 265 267 265 263 262 264 267 269 269 270 274 279 280 277 271 268 269 273 277 281 285 289 293 294 295 295 289 281 275 271 268 266 265 264 264 265 264 261 258 256 258 260 261 262 266 270 273 274 277 279 277 272 263 252 246 246 246 239 230 220 213 209 204 199 197 201 208 211
225 226 230 234 236 237 239 241 244 247 251 252 251 252 252 254 258 263 266 265 262 259 258 260 261 261 263 266 271 275 274 269 267 270 275 280 286 288 290 291 292 292 293 291 287 280 275 271 268 266 265 265 266 266 265 264 261 259 260 261 260 263 269 272 274 273 275 275 274 270 262 250 244 245 245 245 243 238 235 231 228 226 230 239 242
227 229 232 235 238 239 240 242 244 247 247 246 249 250 249 251 257 262 265 265 261 256 253 253 253 254 257 259 262 268 271 269 269 272 275 278 284 288 286 284 284 285 285 284 284 281 276 272 268 266 265 265 267 268 268 266 264 261 261 260 258 258 262 267 270 270 270 270 271 272 270 264 254 246 244 245 246 246 245 245 245 243 244 249 254
231 234 236 238 239 240 240 241 245 247 245 242 244 248 251 254 258 261 264 265 260 253 250 251 250 250 253 256 258 261 263 264 265 268 271 271 275 280 280 277 276 278 279 278 277 275 272 269 266 262 260 260 263 266 267 268 266 263 262 260 257 253 254 262 266 266 265 265 267 272 274 272 266 256 250 249 249 249 250 250 250 250 249 251 256
235 237 239 241 242 242 242 242 245 247 246 245 247 249 252 257 259 260 263 264 257 249 248 249 250 250 251 254 255 257 258 258 259 261 264 265 268 274 277 276 276 276 275 274 273 271 269 267 265 262 259 257 257 260 263 265 266 265 263 262 258 249 246 256 262 263 262 261 261 265 270 274 273 264 258 257 256 253 253 253 253 253 253 254 257
238 239 240 242 243 244 244 244 245 246 247 247 249 250 252 254 256 259 262 262 255 248 246 246 248 250 251 251 253 255 256 257 257 257 259 261 264 269 272 272 273 274 273 271 269 269 267 265 264 263 261 258 256 257 260 263 266 267 265 263 259 250 243 252 259 260 259 258 256 260 266 271 274 273 268 264 261 253 247 248 252 256 258 258 260
239 240 241 243 244 245 246 246 247 248 248 247 247 248 250 252 254 255 258 257 253 250 248 245 245 248 251 251 253 254 256 258 259 258 258 259 259 261 264 266 268 271 273 271 268 267 267 265 263 261 260 258 256 255 256 260 264 266 266 265 261 252 244 248 255 258 258 257 257 260 265 269 272 274 271 265 258 251 246 244 249 257 262 261 260
238 239 241 243 244 245 247 248 249 250 249 248 247 246 248 250 250 251 252 251 248 248 248 246 244 247 250 251 252 254 255 257 258 259 260 259 256 254 257 261 265 268 270 269 267 267 267 266 264 261 260 258 256 254 253 254 257 260 263 264 263 257 249 246 250 255 260 262 262 263 266 269 269 270 269 264 258 254 251 248 248 252 257 259 258
236 237 239 241 243 245 246 248 249 250 250 250 249 248 247 246 246 247 249 248 245 244 244 243 244 248 249 249 250 251 253 254 256 259 260 259 258 256 256 260 264 266 267 267 266 266 266 265 264 262 260 258 256 255 253 251 252 255 259 262 263 261 255 250 249 252 256 259 261 264 267 268 268 267 266 264 261 259 256 252 251 251 253 256 258
236 237 238 239 241 243 245 246 247 248 249 250 251 251 249 247 246 246 246 246 245 243 242 241 244 247 248 248 247 248 250 252 255 257 259 259 260 260 259 260 263 265 266 265 264 264 265 265 264 262 261 259 256 255 255 253 252 253 256 259 262 262 260 257 253 252 252 253 256 260 263 264 266 267 264 260 258 259 258 257 256 256 256 257 259
237 237 238 239 240 241 243 244 245 246 247 248 250 251 252 251 250 248 246 245 245 244 243 242 243 245 246 246 247 247 249 252 254 256 258 259 260 261 260 259 260 261 262 261 260 261 261 262 263 263 263 262 260 258 257 256 255 254 255 257 259 261 262 261 258 256 255 254 253 255 258 260 263 265 263 259 256 257 257 257 257 258 260 261 261
238 238 238 239 240 241 242 243 244 245 246 247 249 250 251 252 252 250 248 245 244 244 244 243 244 245 245 246 247 248 249 252 256 257 259 260 260 260 260 259 258 258 259 259 257 258 258 259 260 262 263 264 263 261 260 259 257 256 256 256 257 259 261 262 262 260 259 258 256 256 256 258 261 262 260 258 259 259 257 257 258 258 258 260 261
238 239 239 239 240 241 241 242 244 245 246 247 248 250 251 252 252 251 249 247 245 244 244 244 244 245 245 246 247 247 248 251 255 258 260 261 260 259 259 259 258 257 258 258 257 256 257 257 258 259 260 262 263 263 262 262 260 258 258 258 258 258 259 260 262 262 261 260 259 257 255 255 257 259 258 257 259 261 260 259 259 257 254 252 254
238 239 240 240 240 241 241 242 243 244 246 247 248 250 250 251 252 251 250 248 246 244 244 245 245 246 246 247 247 247 248 250 254 257 259 260 260 258 257 257 257 256 256 257 258 257 256 255 256 257 258 259 261 262 263 264 263 262 261 261 260 260 259 259 260 261 261 260 260 259 257 254 252 253 254 254 256 259 262 262 261 259 254 249 249
237 238 239 240 241 241 242 242 243 244 245 246 248 249 249 250 250 251 250 249 248 246 245 245 245 246 247 248 248 249 249 250 253 256 257 257 257 257 256 254 254 254 253 253 256 257 255 254 254 255 256 257 259 260 262 264 265 265 265 264 262 262 260 259 259 259 259 260 260 260 258 254 250 249 250 251 253 256 260 261 261 260 258 255 254
237 238 238 239 240 241 242 243 243 244 244 245 246 248 248 249 249 250 250 250 249 248 246 245 245 246 247 248 249 250 251 252 253 255 255 254 253 254 255 254 252 252 251 250 252 253 253 253 253 253 254 255 257 259 260 262 263 265 266 266 265 263 262 260 258 258 259 260 261 261 259 256 251 247 246 248 250 253 254 256 258 259 260 259 260
237 237 238 239 240 241 242 243 243 244 244 245 246 247 248 248 249 249 250 250 249 248 247 246 246 246 247 248 249 250 251 252 253 253 253 252 250 251 253 253 252 250 250 249 250 250 250 251 252 253 253 254 256 257 259 260 262 263 264 265 265 264 263 261 259 257 257 259 261 261 261 259 255 249 245 245 248 250 250 250 253 256 257 258 259
238 238 238 239 239 240 241 242 243 244 245 245 246 246 247 248 248 249 249 250 249 249 249 248 247 247 247 248 249 250 250 251 252 252 252 250 249 248 249 250 251 250 248 247 247 248 248 249 249 250 252 255 256 257 258 259 261 262 263 264 265 264 263 262 260 258 256 257 258 260 261 261 259 255 250 247 247 249 250 249 250 252 254 255 256
239 239 239 239 239 240 240 241 242 243 244 245 246 246 247 247 248 248 249 249 250 250 249 249 248 248 247 248 248 249 250 250 251 251 251 250 249 247 246 247 247 247 246 244 244 245 246 247 246 247 250 253 255 257 258 259 260 261 262 263 264 264 263 262 261 261 259 256 256 258 259 259 259 258 256 252 250 250 251 251 251 251 252 253 254
240 240 240 240 240 240 240 241 241 242 244 245 245 246 246 247 247 248 248 249 249 250 250 249 249 249 248 248 248 249 249 249 250 250 250 249 248 247 246 245 245 245 244 243 243 243 245 246 246 246 248 250 252 254 257 260 262 262 262 261 262 263 263 261 261 261 261 259 257 257 257 256 256 257 257 256 255 255 255 255 253 252 252 252 253
242 242 241 241 241 241 241 241 242 242 243 244 245 246 246 247 247 247 247 248 248 249 249 249 249 249 249 248 248 248 249 249 249 249 249 248 248 247 246 246 245 245 245 245 244 244 245 246 246 246 246 247 250 253 257 260 263 264 263 261 260 260 261 261 260 261 261 260 259 258 257 256 255 255 256 257 257 258 259 258 257 256 255 253 253
243 243 243 243 242 242 242 242 243 243 243 244 244 245 246 246 247 247 247 247 248 248 248 249 249 248 248 248 248 248 249 249 249 249 248 248 247 247 246 246 246 246 246 246 246 246 246 247 247 247 247 249 251 254 257 260 262 264 264 262 259 258 258 258 259 260 260 260 260 260 259 258 257 256 256 256 257 258 259 260 260 259 258 256 256
244 244 244 244 244 244 243 243 243 244 244 244 245 245 246 246 247 247 247 247 247 248 248 248 248 248 248 248 248 248 249 249 249 249 249 248 248 247 246 246 246 246 246 247 247 247 247 248 248 248 249 251 253 255 257 259 262 264 264 261 259 257 257 256 256 257 258 259 259 260 260 260 259 258 257 257 258 259 259 260 261 261 261 260 260
246 245 245 245 245 245 245 244 244 244 244 245 245 246 246 246 247 247 248 248 248 248 248 248 249 249 248 248 248 248 248 248 249 249 249 249 249 248 248 247 246 246 247 247 247 247 248 248 249 249 251 252 253 255 256 259 261 263 262 260 258 257 256 256 255 255 256 256 258 258 259 259 259 259 259 259 260 260 260 260 261 261 263 263 263
247 247 247 246 246 246 246 246 245 245 245 245 245 245 246 247 247 247 248 248 249 249 248 248 248 249 249 249 248 248 248 248 248 248 249 249 248 248 248 248 248 248 248 248 248 248 248 249 249 250 251 252 253 255 257 259 260 261 260 258 257 256 255 254 254 255 255 255 255 257 258 258 258 258 259 259 260 261 260 261 261 261 262 264 264
248 248 248 248 248 247 247 247 246 246 246 246 246 246 246 246 247 247 248 248 249 249 249 249 249 249 249 249 249 249 249 248 248 248 248 248 248 248 247 248 248 249 249 249 249 249 249 250 250 251 251 252 254 255 256 258 258 258 258 256 256 255 255 254 253 254 254 254 254 255 256 257 258 258 258 259 260 261 261 261 262 261 262 264 264
248 248 249 249 249 249 248 248 248 247 247 247 247 247 247 247 247 247 248 248 249 249 249 250 250 249 249 249 249 249 249 249 249 249 248 248 248 248 247 247 247 248 249 250 250 250 250 251 251 252 252 253 254 255 256 256 256 256 255 254 254 254 254 254 253 253 253 254 254 254 255 256 256 257 257 258 259 260 261 261 262 262 261 262 263
248 248 248 249 249 249 249 249 249 249 248 248 248 248 248 247 247 247 248 248 248 249 249 250 250 250 250 250 249 249 249 250 250 250 249 249 249 248 247 246 246 246 247 248 249 251 251 252 252 252 253 254 254 255 255 255 255 254 253 253 252 253 253 254 254 253 253 253 254 254 255 255 255 255 256 257 258 259 260 261 262 262 261 261 261
247 247 248 248 248 249 249 249 249 249 249 249 249 248 248 248 248 248 248 248 248 249 249 249 249 250 250 250 250 249 249 249 250 250 250 250 249 249 248 247 247 246 246 247 247 249 250 251 252 252 253 253 254 255 255 255 255 254 253 252 251 251 252 253 253 253 253 253 254 254 254 255 254 254 255 256 257 257 258 259 260 261 260 260 261
248 248 248 248 248 249 249 249 249 250 250 250 250 249 249 249 249 249 249 249 249 249 249 249 249 249 250 250 250 250 250 250 250 250 250 250 250 250 249 248 248 247 247 246 247 247 248 249 250 251 252 252 253 254 255 255 255 255 254 253 251 251 251 252 252 253 253 253 253 254 254 254 254 254 254 255 256 256 257 257 258 258 259 259 260
248 248 248 248 248 249 249 249 249 249 250 250 250 250 250 250 250 249 249 249 249 249 249 249 249 249 249 249 249 249 249 250 250 250 250 250 250 250 249 249 249 248 247 247 247 247 247 248 249 250 251 251 252 252 253 254 254 255 255 254 253 252 251 251 252 252 253 252 252 253 253 254 254 254 254 255 255 255 256 256 256 256 257 258 259
249 249 249 249 249 249 249 249 249 249 249 249 250 250 250 250 250 250 250 250 249 249 249 249 249 249 249 249 249 249 249 249 249 250 250 250 250 250 249 249 249 249 248 248 247 247 247 247 248 248 249 250 250 251 251 252 253 254 254 254 255 254 254 252 252 252 252 252 252 252 252 253 254 254 255 255 255 255 255 256 256 256 256 257 258
249 249 249 249 249 250 249 249 249 249 249 249 249 249 249 250 250 250 250 250 250 250 249 249 249 249 249 249 249 249 249 249 249 249 249 250 250 250 250 249 249 248 248 248 248 247 247 247 247 248 248 249 249 250 250 250 251 252 253 254 254 255 255 254 253 253 252 252 252 252 252 252 253 253 254 255 255 255 255 255 256 256 256 256 257
250 250 250 250 250 250 250 250 250 250 249 249 249 249 249 249 249 249 249 249 250 250 249 249 249 249 249 249 248 248 248 248 249 249 249 249 249 250 250 250 249 248 248 248 248 248 247 247 247 247 248 248 249 249 250 250 250 250 251 252 253 253 254 255 255 254 253 253 253 253 252 252 252 253 253 254 255 255 256 256 256 256 256 256 257
251 251 251 251 250 250 250 250 250 250 250 250 250 249 249 249 249 249 249 249 249 249 249 249 249 249 249 249 248 248 248 248 248 248 248 248 248 248 249 249 249 249 248 248 247 247 247 247 247 247 247 248 248 249 249 249 250 250 250 250 251 252 253 254 254 255 254 254 254 253 253 253 252 252 253 253 254 254 255 256 256 256 256 256 257
252 252 252 251 251 251 251 251 251 250 250 250 250 250 250 250 250 249 249 249 249 249 249 249 249 249 249 249 248 248 248 247 247 247 247 247 247 247 247 248 248 248 248 248 247 247 246 246 246 247 247 247 247 248 248 249 249 249 250 250 250 250 251 252 253 254 254 255 255 254 254 254 253 253 252 253 253 254 255 255 256 256 257 257 257
251 251 252 252 252 252 252 252 252 251 251 251 251 251 250 250 250 250 250 249 249 249 249 249 249 248 248 248 248 248 248 247 247 247 247 247 246 246 246 246 247 247 247 247 247 247 246 246 246 246 246 246 247 247 248 248 249 249 249 250 250 250 250 251 252 252 253 254 255 255 255 255 255 254 254 253 253 253 254 255 255 256 257 257 257
Height
11033 11033 11034 11035 11035 11035 11035 11034 11034 11034 11034 11035 11036 11036 11036 11036 11036 11035 11035 11034 11034 11034 11034 11034 11034 11035 11035 11035 11035 11035 11035 11035 11034 11033 11033 11032 11032 11031 11030 11029 11027 11026 11025 11023 11022 11021 11019 11018 11016 11015 11014 11013 11013 11012 11011 11011 11010 11009 11008 11007 11006 11005 11004 11003 11002 11001 11000 11000 10999 10998 10997 10996 10996 10995 10994 10993 10992 10991 10990 10989 10988 10987 10986 10985 10985
11032 11033 11033 11034 11035 11035 11035 11034 11033 11033 11033 11034 11034 11035 11035 11035 11035 11035 11035 11035 11035 11034 11034 11035 11035 11035 11036 11036 11036 11036 11036 11036 11036 11035 11035 11034 11034 11033 11032 11032 11030 11029 11028 11026 11025 11024 11022 11021 11019 11018 11017 11016 11015 11014 11013 11013 11012 11011 11010 11009 11008 11007 11006 11005 11004 11003 11002 11002 11001 11000 10999 10998 10997 10996 10995 10994 10993 10992 10991 10990 10989 10988 10988 10987 10986
11030 11031 11032 11033 11034 11034 11034 11034 11033 11032 11032 11032 11033 11033 11034 11034 11035 11035 11035 11035 11035 11035 11035 11035 11035 11035 11036 11036 11036 11037 11037 11037 11038 11037 11037 11036 11036 11035 11035 11034 11033 11032 11030 11029 11028 11026 11025 11024 11022 11021 11020 11019 11017 11016 11016 11015 11014 11013 11012 11012 11011 11010 11009 11008 11007 11006 11005 11004 11003 11002 11002 11001 11000 10999 10998 10997 10995 10994 10993 10993 10992 10991 10991 10990 10990
11027 11029 11031 11031 11032 11032 11033 11033 11032 11032 11031 11031 11032 11032 11033 11033 11034 11034 11035 11035 11035 11035 11035 11035 11035 11035 11036 11036 11036 11037 11037 11038 11038 11039 11038 11038 11037 11037 11037 11036 11035 11034 11033 11032 11031 11029 11028 11026 11025 11024 11023 11021 11020 11019 11018 11017 11016 11015 11015 11014 11013 11013 11012 11011 11010 11009 11008 11007 11006 11006 11005 11004 11003 11002 11001 11000 10999 10998 10997 10997 10996 10996 10995 10995 10994
11025 11027 11029 11030 11031 11031 11031 11032 11031 11031 11031 11030 11031 11031 11032 11033 11033 11034 11034 11035 11035 11035 11035 11035 11035 11035 11035 11035 11036 11036 11037 11038 11039 11039 11039 11039 11039 11038 11038 11038 11037 11037 11036 11035 11033 11032 11031 11029 11028 11027 11026 11024 11023 11022 11021 11020 11019 11018 11017 11016 11016 11015 11015 11014 11014 11013 11012 11011 11010 11009 11008 11008 11007 11006 11005 11004 11003 11002 11002 11001 11001 11000 11000 10999 10999
11024 11026 11027 11029 11030 11031 11030 11030 11030 11030 11030 11029 11029 11030 11031 11032 11032 11032 11033 11034 11034 11034 11035 11035 11034 11035 11035 11035 11035 11036 11037 11037 11038 11039 11040 11040 11040 11039 11039 11039 11039 11038 11038 11037 11036 11034 11033 11032 11030 11029 11028 11027 11026 11025 11024 11023 11021 11020 11020 11019 11018 11018 11017 11017 11016 11016 11015 11015 11014 11013 11012 11012 11011 11010 11009 11008 11008 11007 11006 11006 11005 11005 11004 11004 11003
11024 11025 11025 11026 11028 11028 11028 11028 11028 11028 11028 11028 11027 11027 11028 11029 11030 11031 11031 11031 11032 11033 11033 11034 11034 11034 11034 11034 11035 11035 11036 11037 11037 11039 11039 11040 11040 11040 11040 11039 11039 11039 11039 11038 11037 11036 11035 11034 11032 11031 11030 11029 11028 11027 11026 11025 11024 11023 11022 11021 11021 11020 11020 11019 11019 11019 11018 11018 11018 11017 11016 11015 11015 11014 11013 11012 11012 11011 11010 11010 11009 11009 11009 11008 11007
11019 11021 11022 11023 11024 11024 11024 11025 11025 11026 11027 11026 11025 11024 11025 11026 11027 11028 11028 11028 11029 11030 11031 11031 11032 11032 11033 11033 11034 11035 11035 11036 11036 11037 11038 11039 11040 11040 11040 11040 11040 11039 11039 11039 11038 11038 11036 11035 11034 11033 11032 11031 11030 11029 11028 11027 11026 11026 11025 11024 11023 11023 11022 11022 11021 11021 11021 11021 11020 11020 11019 11019 11018 11018 11017 11016 11016 11015 11014 11014 11013 11013 11012 11012 11011
11012 11013 11016 11018 11019 11020 11021 11021 11022 11023 11024 11024 11022 11021 11021 11022 11023 11023 11024 11024 11026 11027 11028 11029 11030 11030 11031 11032 11033 11034 11034 11035 11035 11036 11037 11038 11039 11039 11039 11040 11039 11039 11039 11039 11038 11038 11037 11036 11035 11034 11033 11032 11031 11030 11029 11029 11028 11027 11027 11026 11025 11025 11024 11024 11024 11024 11023 11023 11023 11023 11022 11022 11022 11021 11021 11020 11019 11019 11018 11018 11017 11017 11016 11016 11015
11009 11010 11012 11014 11015 11016 11017 11018 11019 11019 11020 11020 11019 11017 11016 11017 11018 11020 11021 11023 11024 11026 11027 11028 11029 11030 11030 11031 11032 11033 11034 11034 11034 11035 11036 11037 11038 11038 11039 11039 11039 11039 11038 11038 11038 11037 11037 11036 11036 11035 11034 11033 11032 11031 11030 11029 11029 11028 11028 11027 11027 11026 11026 11026 11026 11026 11025 11025 11025 11025 11025 11025 11024 11024 11024 11024 11023 11022 11022 11022 11021 11020 11020 11019 11018
11005 11007 11009 11010 11012 11013 11014 11015 11015 11016 11017 11017 11016 11014 11013 11014 11015 11017 11019 11022 11024 11025 11026 11028 11029 11030 11030 11030 11031 11032 11033 11034 11034 11034 11034 11035 11036 11037 11038 11038 11038 11038 11038 11037 11037 11036 11036 11036 11035 11035 11034 11033 11032 11031 11031 11030 11029 11029 11028 11028 11027 11027 11027 11027 11027 11027 11027 11027 11027 11027 11027 11027 11027 11027 11026 11026 11026 11026 11025 11025 11024 11023 11023 11022 11021
11001 11003 11004 11006 11008 11008 11009 11011 11011 11012 11013 11014 11013 11012 11012 11013 11014 11016 11018 11020 11022 11023 11024 11026 11028 11029 11029 11029 11030 11031 11032 11032 11033 11033 11033 11034 11034 11035 11036 11036 11037 11037 11037 11036 11036 11036 11035 11035 11034 11034 11033 11033 11032 11031 11031 11030 11029 11029 11028 11028 11027 11027 11027 11027 11028 11028 11028 11028 11028 11028 11029 11029 11028 11028 11028 11028 11028 11028 11027 11027 11026 11026 11025 11025 11024
10996 10998 10999 11000 11001 11002 11004 11006 11007 11008 11009 11010 11010 11010 11010 11012 11013 11014 11017 11018 11019 11021 11022 11024 11026 11027 11028 11028 11028 11029 11029 11030 11031 11032 11032 11033 11033 11033 11033 11034 11034 11035 11035 11035 11035 11035 11035 11034 11034 11033 11032 11031 11031 11030 11030 11029 11028 11028 11028 11027 11027 11027 11027 11027 11027 11028 11028 11028 11029 11029 11029 11030 11030 11030 11030 11029 11029 11029 11028 11028 11028 11027 11027 11026 11025
10990 10992 10993 10993 10994 10996 10998 11001 11003 11005 11006 11007 11007 11007 11008 11009 11010 11011 11014 11016 11017 11019 11020 11022 11023 11024 11025 11026 11026 11026 11027 11028 11029 11030 11031 11031 11031 11030 11030 11031 11031 11032 11033 11034 11034 11034 11034 11033 11033 11032 11031 11030 11029 11029 11028 11028 11027 11027 11027 11026 11026 11026 11026 11026 11026 11027 11027 11028 11028 11029 11029 11030 11030 11030 11030 11030 11030 11030 11029 11029 11028 11028 11027 11027 11026
10983 10985 10986 10986 10988 10990 10993 10995 10998 11001 11004 11004 11003 11003 11004 11005 11006 11008 11010 11012 11015 11017 11018 11019 11019 11021 11022 11023 11023 11023 11024 11025 11026 11026 11027 11028 11027 11027 11027 11028 11029 11029 11031 11032 11032 11033 11032 11032 11032 11031 11030 11029 11028 11027 11027 11026 11026 11026 11025 11025 11025 11025 11025 11025 11025 11025 11026 11026 11027 11028 11028 11029 11029 11029 11030 11030 11030 11029 11029 11029 11028 11028 11027 11026 11026
10974 10976 10978 10979 10981 10984 10987 10989 10992 10997 11001 11001 10999 10998 10999 11001 11002 11004 11006 11008 11011 11013 11014 11015 11016 11017 11018 11019 11020 11020 11020 11021 11022 11023 11024 11024 11024 11024 11024 11025 11026 11027 11028 11029 11030 11030 11030 11030 11030 11029 11029 11028 11027 11026 11025 11024 11024 11024 11024 11024 11024 11024 11023 11023 11023 11024 11024 11024 11025 11025 11026 11027 11027 11028 11028 11028 11028 11028 11028 11028 11028 11027 11026 11026 11025
10965 10967 10969 10971 10973 10976 10979 10982 10985 10990 10995 10997 10995 10992 10993 10996 10998 10999 11001 11004 11006 11008 11009 11011 11012 11012 11013 11015 11015 11016 11016 11017 11019 11020 11021 11022 11022 11022 11022 11023 11024 11024 11025 11026 11026 11027 11027 11027 11027 11027 11027 11027 11026 11025 11024 11023 11022 11022 11022 11022 11022 11023 11023 11022 11021 11022 11022 11022 11022 11023 11023 11024 11025 11025 11025 11026 11026 11026 11026 11026 11026 11025 11025 11024 11024
10956 10958 10961 10963 10966 10968 10972 10975 10978 10982 10987 10990 10990 10988 10988 10990 10993 10994 10996 10999 11001 11003 11005 11006 11008 11008 11009 11010 11011 11011 11012 11014 11016 11017 11018 11019 11019 11019 11018 11019 11020 11021 11021 11022 11023 11023 11023 11023 11023 11023 11024 11024 11024 11023 11022 11021 11020 11020 11020 11020 11020 11022 11022 11021 11020 11020 11021 11021 11021 11021 11021 11022 11022 11022 11022 11023 11023 11023 11023 11022 11022 11022 11022 11022 11021
10948 10950 10952 10955 10957 10960 10963 10967 10970 10974 10977 10979 10981 10983 10984 10986 10988 10990 10992 10994 10996 10998 11000 11001 11003 11004 11005 11005 11006 11006 11007 11009 11012 11012 11013 11014 11016 11016 11016 11015 11015 11016 11018 11019 11020 11020 11020 11020 11020 11020 11021 11021 11021 11020 11019 11018 11017 11017 11017 11017 11018 11020 11021 11019 11018 11019 11019 11019 11019 11020 11020 11020 11020 11020 11020 11020 11020 11019 11019 11019 11019 11018 11018 11019 11019
10939 10941 10943 10946 10948 10950 10954 10957 10961 10965 10968 10970 10973 10975 10978 10981 10983 10985 10987 10989 10990 10992 10994 10996 10997 10998 10999 11000 11001 11000 11002 11004 11007 11007 11008 11010 11013 11013 11013 11012 11011 11012 11014 11015 11016 11016 11016 11016 11017 11017 11017 11018 11018 11017 11017 11016 11015 11014 11014 11014 11015 11017 11018 11017 11016 11016 11017 11017 11017 11018 11018 11018 11018 11018 11018 11018 11017 11017 11016 11015 11015 11015 11015 11015 11015
10930 10932 10934 10936 10939 10941 10944 10948 10952 10956 10959 10962 10965 10968 10971 10975 10978 10981 10982 10983 10984 10986 10989 10990 10991 10992 10994 10995 10996 10996 10997 10999 11001 11002 11003 11005 11007 11008 11008 11007 11007 11008 11009 11010 11011 11012 11013 11013 11013 11013 11014 11014 11014 11014 11014 11013 11012 11011 11011 11011 11012 11014 11015 11015 11014 11014 11014 11015 11016 11016 11016 11016 11016 11016 11016 11016 11016 11015 11014 11013 11013 11013 11012 11012 11011
10921 10923 10925 10927 10930 10932 10935 10939 10942 10945 10949 10953 10957 10960 10964 10968 10972 10974 10976 10977 10978 10981 10983 10985 10986 10987 10989 10990 10991 10991 10991 10992 10994 10996 10997 10999 11000 11002 11002 11003 11003 11004 11005 11005 11005 11007 11008 11010 11010 11010 11010 11010 11010 11010 11010 11010 11009 11008 11007 11008 11009 11010 11012 11012 11011 11011 11012 11013 11013 11014 11014 11014 11014 11014 11014 11014 11014 11013 11012 11012 11012 11011 11010 11009 11008
10911 10914 10917 10919 10921 10924 10926 10929 10933 10936 10939 10943 10947 10951 10956 10960 10964 10967 10969 10971 10972 10975 10977 10979 10980 10982 10983 10984 10985 10985 10985 10986 10988 10989 10991 10993 10994 10996 10997 10998 10999 11001 11000 11000 11000 11001 11002 11004 11005 11006 11007 11007 11006 11005 11005 11005 11005 11004 11004 11004 11005 11006 11008 11008 11009 11009 11010 11010 11010 11010 11011 11011 11011 11011 11011 11011 11011 11010 11010 11010 11010 11010 11009 11008 11007
10900 10904 10906 10909 10911 10914 10917 10920 10923 10927 10930 10933 10936 10941 10945 10950 10954 10958 10961 10964 10966 10968 10970 10972 10973 10974 10976 10977 10978 10978 10978 10979 10981 10982 10984 10987 10989 10991 10992 10993 10995 10996 10996 10995 10995 10996 10996 10997 10999 11000 11002 11002 11002 11001 11001 11001 11001 11001 11001 11001 11002 11003 11004 11005 11006 11007 11007 11007 11007 11007 11007 11007 11008 11008 11008 11008 11007 11007 11007 11008 11008 11008 11007 11006 11006
10890 10893 10896 10898 10901 10904 10907 10910 10914 10918 10921 10924 10926 10930 10935 10939 10943 10947 10952 10955 10958 10960 10962 10964 10965 10967 10969 10970 10971 10971 10971 10972 10974 10976 10978 10981 10983 10985 10986 10987 10988 10990 10990 10989 10989 10990 10990 10991 10992 10994 10995 10996 10997 10997 10997 10997 10998 10998 10998 10998 10998 10999 11000 11002 11003 11004 11003 11003 11003 11003 11003 11003 11004 11004 11004 11004 11004 11004 11004 11005 11005 11005 11005 11005 11004
10878 10882 10885 10888 10890 10894 10897 10900 10903 10907 10911 10913 10916 10919 10923 10927 10931 10936 10941 10946 10949 10951 10953 10955 10957 10959 10961 10963 10964 10964 10964 10965 10966 10968 10971 10973 10976 10979 10980 10980 10982 10983 10983 10983 10983 10983 10984 10986 10987 10988 10988 10990 10991 10992 10993 10993 10994 10994 10994 10995 10996 10996 10997 10998 10999 10999 10999 10999 10999 10999 10999 10999 10999 10999 11000 11001 11001 11001 11002 11003 11003 11002 11002 11002 11001
10865 10869 10873 10876 10879 10883 10886 10889 10892 10896 10899 10902 10904 10908 10912 10915 10919 10924 10929 10934 10939 10942 10944 10945 10948 10950 10951 10953 10955 10956 10956 10957 10958 10960 10963 10966 10969 10971 10973 10974 10976 10977 10977 10977 10977 10977 10978 10980 10981 10981 10982 10983 10985 10986 10987 10988 10989 10990 10990 10991 10992 10993 10993 10994 10994 10995 10994 10994 10994 10995 10995 10995 10995 10995 10996 10997 10997 10997 10998 10999 10999 10997 10997 10998 10996
10854 10857 10860 10864 10868 10871 10875 10878 10881 10885 10888 10890 10892 10896 10900 10904 10908 10912 10917 10922 10927 10931 10934 10936 10938 10940 10941 10943 10945 10947 10948 10948 10950 10952 10956 10959 10961 10963 10965 10967 10969 10970 10971 10971 10972 10972 10972 10973 10973 10974 10975 10976 10978 10979 10981 10982 10983 10985 10986 10987 10988 10989 10990 10990 10991 10990 10989 10989 10990 10990 10990 10991 10991 10991 10991 10993 10993 10992 10993 10994 10994 10992 10992 10992 10991
10842 10845 10848 10852 10856 10860 10864 10867 10870 10874 10877 10879 10881 10885 10889 10893 10897 10900 10905 10910 10915 10919 10923 10925 10927 10930 10931 10933 10935 10937 10938 10939 10941 10944 10948 10952 10953 10953 10955 10959 10961 10961 10963 10965 10966 10966 10966 10966 10966 10967 10968 10969 10971 10972 10974 10975 10977 10978 10979 10980 10982 10984 10985 10985 10986 10985 10984 10984 10985 10984 10984 10985 10986 10986 10987 10989 10989 10989 10990 10990 10989 10988 10988 10988 10987
10829 10833 10836 10840 10843 10847 10851 10855 10858 10862 10865 10868 10870 10873 10877 10881 10885 10889 10892 10897 10902 10906 10909 10912 10916 10919 10921 10922 10925 10926 10927 10929 10931 10934 10939 10944 10945 10944 10945 10950 10953 10953 10955 10958 10958 10959 10959 10959 10959 10960 10962 10963 10964 10965 10966 10968 10970 10971 10972 10973 10975 10977 10978 10979 10980 10980 10980 10980 10980 10978 10978 10979 10980 10981 10983 10984 10984 10984 10985 10985 10984 10984 10984 10984 10983
10816 10819 10823 10827 10831 10835 10839 10842 10845 10849 10852 10855 10858 10861 10864 10868 10873 10877 10880 10883 10887 10891 10895 10899 10904 10908 10910 10911 10914 10916 10917 10918 10921 10925 10929 10933 10936 10936 10936 10939 10943 10945 10947 10948 10949 10950 10952 10953 10953 10953 10955 10957 10957 10958 10959 10961 10963 10963 10965 10966 10968 10970 10971 10972 10973 10975 10975 10975 10974 10973 10973 10974 10975 10976 10977 10978 10978 10978 10979 10979 10979 10979 10979 10979 10978
10801 10805 10809 10813 10817 10822 10826 10830 10833 10836 10839 10841 10844 10848 10851 10854 10859 10863 10866 10869 10872 10878 10883 10887 10891 10895 10898 10900 10902 10904 10906 10907 10910 10914 10918 10922 10926 10927 10927 10928 10932 10936 10938 10939 10940 10941 10943 10945 10946 10946 10948 10950 10950 10951 10953 10954 10955 10956 10957 10959 10960 10962 10964 10965 10967 10968 10969 10969 10969 10969 10969 10969 10969 10969 10970 10971 10972 10972 10973 10973 10974 10975 10975 10974 10973
10787 10791 10795 10800 10804 10809 10813 10817 10820 10822 10825 10827 10830 10834 10838 10841 10844 10849 10853 10856 10859 10864 10870 10874 10877 10881 10885 10888 10890 10892 10894 10897 10899 10902 10906 10910 10914 10916 10917 10918 10921 10925 10927 10929 10931 10932 10934 10936 10937 10937 10939 10941 10942 10943 10946 10948 10948 10950 10951 10952 10953 10954 10956 10958 10960 10960 10961 10962 10963 10964 10963 10963 10963 10962 10962 10963 10965 10965 10966 10966 10968 10969 10969 10968 10967
10772 10776 10781 10786 10791 10795 10799 10802 10806 10808 10811 10814 10817 10820 10823 10827 10831 10835 10840 10843 10846 10850 10855 10859 10864 10868 10872 10876 10878 10880 10881 10885 10888 10890 10893 10897 10900 10903 10905 10907 10910 10913 10916 10918 10920 10922 10923 10925 10927 10928 10930 10933 10934 10935 10937 10939 10941 10943 10944 10945 10945 10946 10948 10951 10952 10952 10953 10954 10955 10956 10956 10956 10956 10956 10956 10956 10957 10958 10958 10959 10960 10962 10962 10961 10961
10756 10761 10765 10770 10775 10780 10784 10788 10791 10794 10797 10800 10803 10806 10809 10812 10816 10821 10825 10829 10832 10836 10840 10845 10849 10854 10859 10863 10866 10867 10868 10871 10874 10877 10880 10883 10886 10889 10893 10895 10898 10901 10904 10907 10910 10911 10912 10914 10916 10918 10920 10923 10925 10926 10928 10930 10932 10934 10936 10937 10938 10939 10940 10942 10943 10944 10944 10945 10946 10947 10947 10948 10948 10948 10949 10950 10950 10951 10951 10952 10953 10953 10954 10955 10955
10739 10744 10749 10754 10760 10764 10769 10773 10777 10780 10783 10787 10790 10792 10795 10798 10802 10807 10811 10815 10818 10822 10826 10830 10834 10840 10845 10849 10852 10854 10855 10858 10860 10863 10866 10869 10872 10876 10880 10883 10886 10888 10891 10894 10897 10900 10901 10903 10905 10907 10910 10912 10915 10917 10918 10920 10922 10925 10927 10929 10930 10931 10932 10933 10934 10935 10936 10937 10937 10938 10939 10940 10940 10940 10941 10942 10943 10944 10944 10945 10945 10945 10946 10947 10948
10722 10727 10732 10737 10743 10748 10753 10757 10761 10765 10768 10772 10775 10779 10781 10784 10788 10792 10796 10800 10803 10807 10811 10815 10819 10825 10831 10836 10838 10840 10843 10845 10846 10848 10851 10855 10859 10863 10867 10871 10873 10875 10877 10881 10884 10887 10889 10892 10894 10896 10898 10901 10904 10906 10908 10910 10912 10915 10917 10919 10921 10922 10923 10924 10926 10927 10928 10928 10929 10929 10930 10931 10931 10931 10933 10934 10934 10935 10937 10937 10938 10937 10937 10938 10940
10704 10709 10714 10720 10725 10730 10735 10739 10744 10749 10753 10757 10760 10764 10767 10770 10773 10776 10780 10784 10788 10793 10797 10801 10805 10810 10815 10820 10824 10827 10830 10832 10833 10835 10837 10840 10845 10850 10853 10857 10860 10861 10863 10867 10870 10873 10876 10879 10882 10884 10887 10889 10892 10895 10897 10899 10902 10904 10906 10908 10910 10912 10913 10914 10916 10917 10919 10920 10920 10920 10921 10923 10923 10923 10924 10925 10925 10926 10928 10930 10930 10930 10929 10930 10931
10685 10690 10695 10701 10706 10711 10716 10721 10726 10731 10736 10740 10744 10748 10751 10754 10758 10762 10765 10769 10772 10777 10782 10786 10791 10795 10799 10804 10809 10814 10817 10818 10820 10821 10823 10826 10830 10835 10840 10843 10846 10848 10849 10852 10855 10860 10863 10866 10868 10871 10874 10876 10879 10882 10885 10888 10891 10893 10895 10897 10899 10901 10902 10904 10905 10907 10909 10910 10911 10911 10912 10913 10914 10915 10916 10916 10916 10917 10920 10921 10921 10922 10922 10922 10922
10666 10671 10676 10681 10686 10692 10697 10702 10707 10711 10716 10721 10726 10730 10734 10738 10742 10746 10750 10753 10756 10760 10765 10770 10775 10779 10784 10789 10794 10799 10802 10803 10805 10806 10808 10811 10816 10821 10827 10831 10833 10835 10836 10838 10841 10845 10849 10852 10854 10857 10860 10863 10866 10869 10872 10876 10879 10882 10884 10885 10887 10888 10890 10892 10894 10896 10898 10900 10901 10902 10902 10903 10904 10906 10907 10907 10907 10908 10910 10911 10912 10913 10913 10913 10913
10648 10653 10657 10661 10666 10671 10676 10681 10686 10691 10696 10701 10706 10711 10716 10721 10725 10729 10733 10737 10741 10744 10749 10754 10758 10763 10768 10774 10779 10783 10785 10787 10790 10792 10794 10797 10801 10807 10813 10817 10821 10822 10824 10826 10828 10831 10834 10838 10840 10842 10846 10849 10853 10855 10858 10862 10866 10869 10871 10873 10875 10876 10877 10879 10882 10885 10887 10889 10890 10891 10892 10893 10894 10895 10897 10897 10898 10899 10900 10901 10902 10903 10904 10904 10905
10630 10634 10637 10640 10645 10650 10654 10659 10664 10669 10675 10680 10686 10692 10697 10702 10707 10712 10716 10720 10724 10728 10732 10737 10741 10746 10751 10757 10762 10767 10771 10772 10774 10776 10779 10782 10786 10791 10796 10802 10807 10809 10811 10813 10816 10818 10821 10823 10826 10828 10832 10835 10838 10841 10844 10847 10851 10855 10858 10860 10862 10864 10865 10867 10870 10873 10876 10878 10879 10880 10881 10882 10883 10885 10886 10887 10888 10889 10890 10891 10892 10893 10894 10895 10895
10610 10613 10616 10619 10624 10629 10634 10639 10643 10648 10654 10659 10665 10671 10677 10683 10688 10693 10697 10702 10706 10710 10715 10719 10724 10728 10733 10739 10744 10750 10754 10756 10757 10759 10763 10767 10771 10775 10780 10787 10792 10796 10798 10801 10803 10806 10808 10810 10812 10815 10818 10821 10824 10827 10830 10833 10836 10840 10844 10847 10849 10852 10853 10855 10857 10860 10863 10866 10867 10868 10869 10870 10872 10874 10875 10876 10877 10879 10880 10881 10882 10882 10884 10885 10885
10589 10593 10596 10600 10604 10609 10614 10619 10624 10628 10633 10639 10645 10651 10657 10662 10668 10672 10677 10681 10686 10691 10696 10701 10706 10710 10715 10720 10726 10731 10735 10737 10739 10743 10747 10751 10755 10760 10766 10771 10776 10780 10784 10787 10790 10793 10795 10797 10799 10801 10804 10807 10810 10813 10816 10819 10822 10825 10829 10832 10836 10839 10841 10843 10845 10847 10850 10852 10854 10856 10857 10859 10860 10862 10863 10864 10866 10868 10869 10870 10871 10872 10873 10874 10874
10570 10574 10578 10582 10585 10589 10594 10599 10604 10609 10614 10619 10625 10630 10635 10640 10645 10650 10655 10659 10665 10670 10676 10682 10687 10691 10695 10700 10705 10711 10715 10719 10722 10725 10729 10734 10738 10744 10750 10755 10759 10764 10768 10772 10775 10778 10781 10784 10786 10788 10790 10793 10797 10800 10803 10805 10808 10811 10815 10818 10821 10824 10828 10830 10833 10834 10836 10839 10841 10843 10845 10846 10847 10849 10850 10852 10854 10857 10858 10858 10859 10861 10862 10863 10864
10551 10555 10559 10562 10566 10570 10574 10579 10583 10588 10593 10598 10604 10609 10613 10618 10623 10628 10633 10638 10643 10649 10655 10661 10667 10671 10676 10680 10685 10691 10696 10700 10703 10706 10710 10715 10721 10726 10732 10737 10742 10746 10750 10754 10758 10763 10766 10769 10771 10773 10775 10779 10783 10786 10789 10792 10795 10798 10801 10804 10807 10810 10813 10816 10819 10821 10823 10826 10828 10830 10831 10833 10834 10836 10838 10839 10842 10844 10846 10846 10847 10849 10850 10852 10853
10534 10537 10540 10544 10547 10551 10554 10558 10563 10567 10572 10577 10583 10588 10592 10597 10602 10607 10612 10617 10622 10628 10633 10639 10645 10650 10655 10660 10665 10671 10676 10680 10683 10687 10692 10697 10702 10708 10713 10719 10723 10728 10732 10736 10741 10745 10750 10753 10756 10758 10761 10764 10767 10770 10774 10779 10782 10785 10788 10790 10793 10796 10798 10801 10804 10807 10809 10812 10815 10816 10818 10820 10821 10822 10825 10827 10828 10830 10832 10833 10835 10836 10838 10839 10841
10517 10520 10522 10525 10528 10532 10535 10539 10543 10547 10552 10557 10562 10567 10572 10577 10582 10586 10591 10596 10601 10606 10612 10618 10623 10629 10634 10639 10644 10650 10655 10659 10662 10667 10673 10679 10684 10688 10693 10698 10703 10708 10713 10718 10722 10727 10732 10736 10740 10743 10746 10750 10752 10754 10759 10763 10768 10771 10774 10777 10779 10781 10783 10785 10788 10792 10795 10798 10801 10802 10804 10806 10808 10809 10811 10813 10815 10816 10818 10820 10822 10823 10825 10827 10828
10499 10501 10503 10506 10509 10513 10517 10520 10523 10527 10532 10538 10543 10548 10553 10557 10562 10566 10570 10575 10580 10585 10591 10596 10602 10608 10613 10618 10623 10629 10633 10637 10641 10646 10652 10658 10664 10669 10673 10678 10682 10688 10693 10698 10703 10708 10714 10719 10723 10727 10731 10734 10737 10739 10742 10747 10751 10755 10759 10762 10765 10767 10769 10771 10774 10777 10780 10783 10785 10788 10790 10793 10794 10796 10797 10799 10801 10803 10805 10806 10807 10809 10811 10813 10815
10482 10483 10486 10488 10492 10495 10499 10502 10505 10509 10514 10519 10524 10529 10533 10537 10541 10545 10550 10555 10560 10565 10570 10576 10581 10586 10592 10596 10601 10605 10610 10615 10619 10623 10629 10636 10642 10648 10653 10657 10662 10667 10672 10677 10682 10688 10694 10700 10704 10709 10713 10717 10721 10724 10727 10730 10734 10738 10743 10746 10750 10752 10755 10757 10760 10762 10765 10767 10770 10772 10775 10778 10780 10782 10784 10786 10787 10789 10791 10792 10794 10795 10796 10798 10800
10465 10467 10470 10473 10476 10479 10482 10484 10487 10491 10496 10501 10506 10510 10513 10516 10520 10525 10530 10535 10540 10545 10549 10554 10559 10564 10570 10574 10578 10582 10587 10592 10597 10602 10607 10613 10620 10626 10631 10636 10640 10646 10651 10657 10661 10667 10673 10679 10685 10690 10695 10699 10704 10707 10711 10714 10718 10722 10726 10730 10733 10737 10740 10743 10745 10748 10750 10752 10754 10756 10759 10762 10764 10766 10769 10771 10773 10775 10777 10778 10780 10781 10782 10784 10786